This demonstration page uses our WeatherBlox Daily Observations layout. Learn more.

Left ArrowRight Arrow

38.20091, -84.87328

Hourly Observations for July 19, 2019

Temp ( °F °C ) Dew Point ( °F °C ) Humidity (%) Winds ( mph kmh ) Pressure ( in mb ) Visibility ( mi km ) Precip ( " mm )
12:53 am 00:53 Clear 79 26.1 75 23.9 88 88 SW 7 11 29.94 1014 10 16 0.00 0.00
1:53 am 01:53 Clear 79 26.1 74 23.3 85 85 SW 3 6 29.95 1014 10 16 0.00 0.00
2:53 am 02:53 Clear 76 24.4 73 22.8 91 91 SSW 5 7 29.95 1014 10 16 0.00 0.00
3:53 am 03:53 Clear 76 24.4 74 23.3 94 94 SSW 6 9 29.96 1014 10 16 0.00 0.00
4:53 am 04:53 Partly Cloudy 77 25 74 23.3 90 90 SSW 8 13 29.96 1015 10 16 0.00 0.00
5:06 am 05:06 Mostly Cloudy 76 24.4 74 23.3 94 94 SSW 7 11 29.96 1015 10 16 0.00 0.00
5:38 am 05:38 Mostly Clear 76 24.4 73 22.8 91 91 SSW 8 13 29.97 1015 10 16 0.00 0.00
5:53 am 05:53 Mostly Cloudy 76 24.4 73 22.8 91 91 SSW 6 9 29.98 1015 10 16 0.00 0.00
6:25 am 06:25 Mostly Cloudy 76 24.4 73 22.8 91 91 S 6 9 29.98 1015 10 16 0.00 0.00
6:53 am 06:53 Mostly Cloudy 76 24.4 73 22.8 91 91 S 7 11 29.98 1015 10 16 0.00 0.00
7:53 am 07:53 Sunny 77 25 73 22.8 88 88 SW 9 15 29.99 1016 10 16 0.00 0.00
8:53 am 08:53 Sunny 80 26.7 74 23.3 82 82 SW 10 17 30.00 1016 10 16 0.00 0.00
9:53 am 09:53 Mostly Sunny 83 28.3 75 23.9 77 77 W 8 13 30.02 1017 10 16 0.00 0.00
10:32 am 10:32 Mostly Cloudy 84 28.9 76 24.4 77 77 SW 9 15 30.00 1016 10 16 0.00 0.00
10:41 am 10:41 Partly Cloudy 85 29.4 76 24.4 75 75 SW 10 17 30.00 1016 10 16 0.00 0.00
11:30 am 11:30 Mostly Cloudy 87 30.6 76 24.4 70 70 SW 8 13 30.00 1016 10 16 0.00 0.00
11:53 am 11:53 Mostly Cloudy 86 30 76 24.4 72 72 W 8 13 30.01 1016 10 16 0.00 0.00
12:32 pm 12:32 Mostly Cloudy 89 31.7 77 25 68 68 SW 7 11 29.99 1016 10 16 0.00 0.00
12:53 pm 12:53 Partly Cloudy 90 32.2 76 24.4 63 63 S 8 13 30.00 1016 10 16 0.00 0.00
1:53 pm 13:53 Mostly Cloudy 90 32.2 75 23.9 62 62 WSW 9 15 29.99 1016 10 16 0.00 0.00
2:53 pm 14:53 Partly Cloudy 91 32.8 75 23.9 59 59 WSW 12 19 29.97 1015 10 16 0.00 0.00
3:53 pm 15:53 Partly Cloudy 93 33.9 74 23.3 54 54 SSW 8 13 29.97 1015 10 16 0.00 0.00
4:53 pm 16:53 Partly Cloudy 92 33.3 73 22.8 54 54 SW 12 19 29.96 1015 10 16 0.00 0.00
5:53 pm 17:53 Sunny 93 33.9 73 22.8 52 52 SW 15 24 29.95 1014 10 16 0.00 0.00
6:53 pm 18:53 Sunny 91 32.8 72 22.2 54 54 WSW 8 13 29.94 1014 10 16 0.00 0.00
7:53 pm 19:53 Sunny 89 31.7 73 22.8 59 59 WSW 5 7 29.94 1014 10 16 0.00 0.00
8:53 pm 20:53 Sunny 86 30 73 22.8 65 65 WSW 3 6 29.93 1014 10 16 0.00 0.00
9:53 pm 21:53 Clear 80 26.7 74 23.3 82 82 SSW 3 6 29.95 1014 10 16 0.00 0.00
10:53 pm 22:53 Clear 80 26.7 73 22.8 79 79 SW 3 6 29.97 1015 10 16 0.00 0.00
11:53 pm 23:53 Clear 80 26.7 74 23.3 82 82 Calm 29.98 1015 10 16 0.00 0.00

Powered by AerisWeather